When you browse on this site, cookies collect data to enhance your experience and personalize the content and advertising you see.
Visit our Privacy Policy to learn more. By continuing to use the site, you agree to this use of cookies and data.

Meteo pe oră la Shargorod

Astăzi, 11 August, Marţi

Timp Temperatura Precipitaţii Vânt Presiune Umiditate
00:00 +18°C° 0 mm 2 m/s 739 mmHg 79%
01:00 +18°C° 0 mm 2 m/s 739 mmHg 81%
02:00 +17°C° 0 mm 2 m/s 739 mmHg 83%
03:00 +17°C° 0 mm 2 m/s 739 mmHg 85%
04:00 +17°C° 0 mm 2 m/s 739 mmHg 87%
05:00 +16°C° 0 mm 2 m/s 739 mmHg 89%
06:00 +18°C° 0 mm 2 m/s 739 mmHg 81%
07:00 +20°C° 0 mm 2 m/s 739 mmHg 73%
08:00 +22°C° 0 mm 3 m/s 740 mmHg 63%
09:00 +25°C° 0 mm 3 m/s 740 mmHg 57%
10:00 +26°C° 0 mm 3 m/s 740 mmHg 51%
11:00 +28°C° 0 mm 3 m/s 740 mmHg 45%
12:00 +28°C° 0 mm 3 m/s 740 mmHg 45%
13:00 +28°C° 0 mm 3 m/s 739 mmHg 45%
14:00 +28°C° 0 mm 3 m/s 739 mmHg 45%
15:00 +28°C° 0 mm 3 m/s 739 mmHg 46%
16:00 +28°C° 0 mm 3 m/s 739 mmHg 48%
17:00 +28°C° 0 mm 3 m/s 739 mmHg 50%
18:00 +26°C° 0 mm 3 m/s 739 mmHg 57%
19:00 +24°C° 0 mm 2 m/s 739 mmHg 65%
20:00 +21°C° 0 mm 2 m/s 739 mmHg 72%
21:00 +21°C° 0 mm 2 m/s 739 mmHg 75%
22:00 +20°C° 0 mm 2 m/s 739 mmHg 78%
23:00 +19°C° 0 mm 2 m/s 739 mmHg 81%

Mâine, 12 August, Miercuri

Timp Temperatura Precipitaţii Vânt Presiune Umiditate
00:00 +19°C° 0 mm 2 m/s 739 mmHg 83%
01:00 +18°C° 0 mm 2 m/s 739 mmHg 86%
02:00 +18°C° 0 mm 2 m/s 739 mmHg 89%
03:00 +17°C° 0.6 mm 2 m/s 739 mmHg 91%
04:00 +17°C° 0.6 mm 3 m/s 739 mmHg 93%
05:00 +16°C° 0.6 mm 3 m/s 739 mmHg 95%
06:00 +18°C° 0 mm 3 m/s 739 mmHg 91%
07:00 +19°C° 0 mm 4 m/s 739 mmHg 86%
08:00 +20°C° 0 mm 4 m/s 739 mmHg 82%
09:00 +21°C° 0 mm 4 m/s 740 mmHg 73%
10:00 +22°C° 0 mm 5 m/s 740 mmHg 65%
11:00 +23°C° 0 mm 5 m/s 740 mmHg 57%
12:00 +25°C° 0 mm 5 m/s 740 mmHg 54%
13:00 +25°C° 0 mm 5 m/s 740 mmHg 51%
14:00 +25°C° 0 mm 5 m/s 740 mmHg 48%
15:00 +25°C° 0 mm 5 m/s 740 mmHg 49%
16:00 +23°C° 0 mm 5 m/s 740 mmHg 50%
17:00 +22°C° 0 mm 5 m/s 740 mmHg 51%
18:00 +21°C° 0 mm 4 m/s 741 mmHg 58%
19:00 +19°C° 0 mm 4 m/s 741 mmHg 64%
20:00 +17°C° 0 mm 3 m/s 741 mmHg 71%
21:00 +16°C° 0 mm 2 m/s 741 mmHg 73%
22:00 +15°C° 0 mm 2 m/s 741 mmHg 75%
23:00 +15°C° 0 mm 2 m/s 741 mmHg 78%

Poimâine, 13 August, Joi

Timp Temperatura Precipitaţii Vânt Presiune Umiditate
00:00 +14°C° 0 mm 2 m/s 741 mmHg 80%
01:00 +14°C° 0 mm 2 m/s 741 mmHg 82%
02:00 +13°C° 0 mm 2 m/s 741 mmHg 84%
03:00 +13°C° 0 mm 2 m/s 741 mmHg 85%
04:00 +12°C° 0 mm 2 m/s 741 mmHg 87%
05:00 +12°C° 0 mm 2 m/s 741 mmHg 88%
06:00 +14°C° 0 mm 2 m/s 741 mmHg 80%
07:00 +16°C° 0 mm 2 m/s 741 mmHg 72%
08:00 +18°C° 0 mm 2 m/s 741 mmHg 64%
09:00 +19°C° 0 mm 3 m/s 741 mmHg 58%
10:00 +20°C° 0 mm 3 m/s 742 mmHg 51%
11:00 +22°C° 0 mm 3 m/s 742 mmHg 45%
12:00 +22°C° 0 mm 3 m/s 741 mmHg 43%
13:00 +24°C° 0 mm 3 m/s 741 mmHg 40%
14:00 +25°C° 0 mm 3 m/s 741 mmHg 38%
15:00 +24°C° 0 mm 3 m/s 740 mmHg 39%
16:00 +24°C° 0 mm 3 m/s 740 mmHg 40%
17:00 +24°C° 0 mm 3 m/s 740 mmHg 41%
18:00 +21°C° 0 mm 3 m/s 740 mmHg 48%
19:00 +19°C° 0 mm 3 m/s 740 mmHg 56%
20:00 +17°C° 0 mm 2 m/s 740 mmHg 63%
21:00 +16°C° 0 mm 2 m/s 740 mmHg 67%
22:00 +15°C° 0 mm 2 m/s 740 mmHg 70%
23:00 +14°C° 0 mm 2 m/s 740 mmHg 73%

14 August, Vineri

Timp Temperatura Precipitaţii Vânt Presiune Umiditate
00:00 +14°C° 0 mm 1 m/s 740 mmHg 74%
01:00 +14°C° 0 mm 1 m/s 740 mmHg 76%
02:00 +14°C° 0 mm 1 m/s 740 mmHg 77%
03:00 +13°C° 0 mm 1 m/s 740 mmHg 80%
04:00 +13°C° 0 mm 1 m/s 740 mmHg 82%
05:00 +12°C° 0 mm 1 m/s 740 mmHg 85%
06:00 +14°C° 0 mm 1 m/s 740 mmHg 78%
07:00 +16°C° 0 mm 1 m/s 740 mmHg 71%
08:00 +18°C° 0 mm 2 m/s 740 mmHg 63%
09:00 +20°C° 0 mm 2 m/s 740 mmHg 58%
10:00 +21°C° 0 mm 2 m/s 740 mmHg 53%
11:00 +24°C° 0 mm 2 m/s 740 mmHg 48%
12:00 +24°C° 0 mm 2 m/s 740 mmHg 45%
13:00 +25°C° 0 mm 1 m/s 740 mmHg 42%
14:00 +26°C° 0 mm 1 m/s 740 mmHg 40%
15:00 +26°C° 0 mm 2 m/s 739 mmHg 40%
16:00 +26°C° 0 mm 2 m/s 739 mmHg 40%
17:00 +26°C° 0 mm 2 m/s 739 mmHg 39%
18:00 +23°C° 0 mm 2 m/s 739 mmHg 45%
19:00 +20°C° 0 mm 3 m/s 739 mmHg 51%
20:00 +18°C° 0 mm 3 m/s 739 mmHg 57%
21:00 +17°C° 0 mm 3 m/s 739 mmHg 60%
22:00 +16°C° 0 mm 3 m/s 739 mmHg 63%
23:00 +15°C° 0 mm 4 m/s 740 mmHg 66%

15 August, Sâmbătă

Timp Temperatura Precipitaţii Vânt Presiune Umiditate
00:00 +14°C° 0 mm 3 m/s 740 mmHg 69%
01:00 +13°C° 0 mm 3 m/s 740 mmHg 71%
02:00 +14°C° 0 mm 2 m/s 740 mmHg 74%
03:00 +13°C° 0 mm 3 m/s 739 mmHg 74%
04:00 +13°C° 0 mm 3 m/s 739 mmHg 75%
05:00 +12°C° 0 mm 3 m/s 739 mmHg 75%
06:00 +14°C° 0 mm 4 m/s 739 mmHg 70%
07:00 +17°C° 0 mm 4 m/s 740 mmHg 64%
08:00 +19°C° 0 mm 4 m/s 740 mmHg 59%
09:00 +20°C° 0 mm 4 m/s 740 mmHg 54%
10:00 +22°C° 0 mm 4 m/s 740 mmHg 49%
11:00 +23°C° 0 mm 4 m/s 740 mmHg 44%
12:00 +25°C° 0 mm 4 m/s 740 mmHg 43%
13:00 +25°C° 0 mm 4 m/s 740 mmHg 41%
14:00 +26°C° 0 mm 3 m/s 740 mmHg 40%
15:00 +26°C° 0 mm 3 m/s 740 mmHg 40%
16:00 +25°C° 0 mm 3 m/s 740 mmHg 41%
17:00 +25°C° 0 mm 3 m/s 739 mmHg 42%
18:00 +22°C° 0 mm 3 m/s 740 mmHg 46%
19:00 +21°C° 0 mm 3 m/s 740 mmHg 51%
20:00 +19°C° 0 mm 3 m/s 740 mmHg 56%
21:00 +18°C° 0 mm 3 m/s 740 mmHg 59%
22:00 +17°C° 0 mm 3 m/s 740 mmHg 63%
23:00 +16°C° 0 mm 3 m/s 740 mmHg 66%

16 August, Duminică

Timp Temperatura Precipitaţii Vânt Presiune Umiditate
00:00 +14°C° 0 mm 3 m/s 740 mmHg 68%
01:00 +14°C° 0 mm 3 m/s 740 mmHg 69%
02:00 +13°C° 0 mm 3 m/s 740 mmHg 71%
03:00 +13°C° 0 mm 3 m/s 741 mmHg 71%
04:00 +12°C° 0 mm 3 m/s 741 mmHg 72%
05:00 +13°C° 0 mm 2 m/s 741 mmHg 72%
06:00 +14°C° 0 mm 3 m/s 741 mmHg 66%
07:00 +17°C° 0 mm 3 m/s 741 mmHg 60%
08:00 +18°C° 0 mm 3 m/s 741 mmHg 54%
09:00 +20°C° 0 mm 3 m/s 741 mmHg 48%
10:00 +21°C° 0 mm 3 m/s 742 mmHg 43%
11:00 +23°C° 0 mm 4 m/s 742 mmHg 37%
12:00 +23°C° 0 mm 4 m/s 742 mmHg 35%
13:00 +25°C° 0 mm 4 m/s 742 mmHg 33%
14:00 +25°C° 0 mm 4 m/s 741 mmHg 31%
15:00 +25°C° 0 mm 4 m/s 741 mmHg 32%
16:00 +25°C° 0 mm 3 m/s 741 mmHg 33%
17:00 +25°C° 0 mm 3 m/s 741 mmHg 34%
18:00 +22°C° 0 mm 3 m/s 741 mmHg 40%
19:00 +19°C° 0 mm 3 m/s 741 mmHg 47%
20:00 +17°C° 0 mm 3 m/s 741 mmHg 54%
21:00 +16°C° 0 mm 2 m/s 741 mmHg 57%
22:00 +16°C° 0 mm 2 m/s 742 mmHg 60%
23:00 +15°C° 0 mm 2 m/s 742 mmHg 63%
Arată mai mult